Wayne, NE

6:58 PM CDT on August 22, 2017 (GMT -0500)
Wayne Municipal

Weather History for KLCG - November, 2012

Change the Weather History Date:

Saturday, November 3, 2012

  Actual Average (KOFK) Record (KOFK)
Temperature  
Mean Temperature 38 °F -  
Max Temperature 51 °F 51 °F 81 °F (1909)
Min Temperature 24 °F 30 °F -2 °F (1991)
Degree Days  
Heating Degree Days 28    
Moisture  
Dew Point 29 °F    
Average Humidity 76    
Maximum Humidity 96    
Minimum Humidity 50    
Precipitation  
Precipitation 0.00 in - - ()
Sea Level Pressure  
Sea Level Pressure 30.17 in    
Wind  
Wind Speed 1 mph (WNW)    
Max Wind Speed 8 mph    
Max Gust Speed -    
Visibility 10 miles    
Events      
Averages and records for this station are not official NWS values.
T = Trace of Precipitation, MM = Missing Value Source: NWS Daily Summary

Daily Weather History Graph

Daily Weather History Graph

Search for Another Location

Airport or City:

Trip Planner

Search our weather history database for the weather conditions in past years. The results will help you decide how hot, cold, wet, or windy it might be!

Date:

Astronomy

Nov. 03, 2012 Rise Set
Actual Time 8:04 AM CDT 6:18 PM CDT
Civil Twilight 7:34 AM CDT 6:47 PM CDT
Nautical Twilight 7:01 AM CDT 7:20 PM CDT
Astronomical Twilight 6:28 AM CDT 7:53 PM CDT
Moon 9:58 PM CDT (11/3) 12:11 PM CDT (11/3)
Length of Visible Light 11h 12m
Length of Day
10h 14m
Waning Gibbous, 80% of the Moon is Illuminated
Nov 3
Waning Gibbous
Nov 6
Last Quarter
Nov 13
New
Nov 20
First Quarter
Nov 28
Full

Hourly Weather History & Observations

Time (CDT) Temp. Windchill Dew Point Humidity Pressure Visibility Wind Dir Wind Speed Gust Speed Precip Events Conditions
12:15 AM 32.7 °F - 27.7 °F 82% 30.12 in 10.0 mi Calm Calm - N/A   Clear
12:35 AM 31.8 °F - 27.0 °F 82% 30.12 in 10.0 mi Calm Calm - N/A   Clear
12:55 AM 30.0 °F - 26.2 °F 86% 30.12 in 10.0 mi Calm Calm - N/A   Clear
1:15 AM 30.0 °F - 26.2 °F 86% 30.12 in 10.0 mi Calm Calm - N/A   Clear
1:35 AM 28.0 °F - 24.4 °F 86% 30.13 in 10.0 mi Calm Calm - N/A   Clear
1:55 AM 26.6 °F - 23.9 °F 90% 30.13 in 10.0 mi Calm Calm - N/A   Clear
2:15 AM 27.1 °F - 24.4 °F 90% 30.13 in 10.0 mi Calm Calm - N/A   Clear
2:35 AM 26.6 °F - 23.9 °F 90% 30.13 in 10.0 mi Calm Calm - N/A   Clear
3:15 AM 25.2 °F - 22.8 °F 91% 30.13 in 10.0 mi Calm Calm - N/A   Clear
3:35 AM 25.7 °F - 23.5 °F 92% 30.13 in 10.0 mi Calm Calm - N/A   Clear
3:55 AM 24.3 °F - 22.5 °F 93% 30.14 in 10.0 mi Calm Calm - N/A   Clear
4:15 AM 25.5 °F - 23.7 °F 93% 30.15 in 10.0 mi Calm Calm - N/A   Clear
4:35 AM 24.8 °F - 22.6 °F 91% 30.15 in 10.0 mi Calm Calm - N/A   Clear
4:55 AM 25.0 °F - 22.6 °F 91% 30.15 in 10.0 mi Calm Calm - N/A   Scattered Clouds
5:15 AM 26.4 °F - 24.8 °F 94% 30.15 in 10.0 mi Calm Calm - N/A   Clear
5:35 AM 25.2 °F - 23.4 °F 93% 30.15 in 10.0 mi Calm Calm - N/A   Clear
5:55 AM 25.2 °F - 23.7 °F 94% 30.16 in 10.0 mi Calm Calm - N/A   Clear
6:15 AM 24.1 °F - 22.6 °F 94% 30.17 in 10.0 mi Calm Calm - N/A   Clear
6:35 AM 24.6 °F 20.3 °F 23.2 °F 94% 30.17 in 10.0 mi SW 3.5 mph - N/A   Mostly Cloudy
6:55 AM 27.0 °F - 25.3 °F 94% 30.17 in 10.0 mi Calm Calm - N/A   Overcast
7:15 AM 26.2 °F - 24.8 °F 94% 30.17 in 10.0 mi Calm Calm - N/A   Scattered Clouds
7:35 AM 26.2 °F - 24.8 °F 94% 30.17 in 10.0 mi Calm Calm - N/A   Scattered Clouds
7:55 AM 26.6 °F - 25.3 °F 95% 30.17 in 10.0 mi Calm Calm - N/A   Scattered Clouds
8:15 AM 27.5 °F 23.6 °F 26.4 °F 96% 30.18 in 10.0 mi SSW 3.5 mph - N/A   Mostly Cloudy
8:35 AM 28.0 °F - 26.6 °F 94% 30.19 in 7.0 mi Calm Calm - N/A   Scattered Clouds
8:55 AM 27.3 °F - 26.1 °F 95% 30.20 in 7.0 mi Calm Calm - N/A   Clear
9:15 AM 29.8 °F - 28.2 °F 94% 30.20 in 10.0 mi Calm Calm - N/A   Clear
9:35 AM 31.8 °F - 29.5 °F 91% 30.20 in 10.0 mi Calm Calm - N/A   Clear
9:55 AM 35.6 °F - 32.2 °F 87% 30.21 in 10.0 mi Calm Calm - N/A   Mostly Cloudy
10:15 AM 38.1 °F - 32.7 °F 81% 30.21 in 10.0 mi Calm Calm - N/A   Overcast
10:35 AM 39.0 °F - 32.7 °F 78% 30.22 in 10.0 mi Calm Calm - N/A   Overcast
10:55 AM 40.3 °F - 32.0 °F 72% 30.22 in 10.0 mi Calm Calm - N/A   Overcast
11:15 AM 41.2 °F 39.2 °F 33.3 °F 73% 30.22 in 10.0 mi NW 3.5 mph - N/A   Overcast
11:35 AM 42.1 °F 40.2 °F 32.0 °F 67% 30.22 in 10.0 mi NNW 3.5 mph - N/A   Overcast
11:55 AM 42.8 °F 41.1 °F 31.8 °F 65% 30.23 in 10.0 mi West 3.5 mph - N/A   Overcast
12:15 PM 43.0 °F 41.3 °F 31.5 °F 64% 30.22 in 10.0 mi West 3.5 mph - N/A   Overcast
12:35 PM 44.1 °F 41.5 °F 31.8 °F 62% 30.22 in 10.0 mi West 4.6 mph - N/A   Overcast
12:55 PM 45.5 °F 44.2 °F 32.0 °F 59% 30.21 in 10.0 mi NW 3.5 mph - N/A   Overcast
1:15 PM 46.0 °F 43.1 °F 32.0 °F 58% 30.20 in 10.0 mi West 5.8 mph - N/A   Scattered Clouds
1:35 PM 47.3 °F - 32.2 °F 56% 30.20 in 10.0 mi NW 5.8 mph - N/A   Clear
1:55 PM 48.0 °F - 32.0 °F 54% 30.20 in 10.0 mi Calm Calm - N/A   Clear
2:15 PM 49.3 °F - 32.0 °F 51% 30.19 in 10.0 mi NNE 5.8 mph - N/A   Clear
2:35 PM 50.0 °F - 32.0 °F 50% 30.18 in 10.0 mi NW 4.6 mph - N/A   Clear
2:55 PM 50.5 °F - 32.5 °F 50% 30.18 in 10.0 mi Calm Calm - N/A   Clear
3:15 PM 51.1 °F - 33.1 °F 50% 30.18 in 10.0 mi NNW 8.1 mph - N/A   Clear
3:35 PM 51.4 °F - 33.4 °F 50% 30.17 in 10.0 mi NNW 4.6 mph - N/A   Clear
3:55 PM 51.3 °F - 33.3 °F 50% 30.17 in 10.0 mi NNE 5.8 mph - N/A   Clear
4:15 PM 51.8 °F - 33.8 °F 50% 30.17 in 10.0 mi NNW 6.9 mph - N/A   Clear
4:35 PM 51.4 °F - 33.6 °F 51% 30.17 in 10.0 mi NNE 3.5 mph - N/A   Clear
4:55 PM 51.3 °F - 33.6 °F 51% 30.16 in 10.0 mi North 3.5 mph - N/A   Clear
5:15 PM 50.9 °F - 33.3 °F 51% 30.17 in 10.0 mi North 4.6 mph - N/A   Clear
5:35 PM 50.5 °F - 33.4 °F 52% 30.16 in 10.0 mi Calm Calm - N/A   Clear
5:55 PM 48.9 °F - 33.1 °F 54% 30.17 in 10.0 mi Calm Calm - N/A   Clear
6:15 PM 46.2 °F - 32.2 °F 58% 30.17 in 10.0 mi Calm Calm - N/A   Clear
6:35 PM 44.8 °F - 32.0 °F 61% 30.17 in 10.0 mi Calm Calm - N/A   Mostly Cloudy
6:55 PM 40.5 °F - 30.9 °F 69% 30.17 in 10.0 mi Calm Calm - N/A   Overcast
7:15 PM 41.0 °F - 31.6 °F 69% 30.18 in 10.0 mi Calm Calm - N/A   Overcast
7:35 PM 40.6 °F - 31.5 °F 70% 30.19 in 10.0 mi Calm Calm - N/A   Mostly Cloudy
7:55 PM 38.5 °F - 30.6 °F 73% 30.19 in 10.0 mi Calm Calm - N/A   Mostly Cloudy
8:15 PM 37.6 °F - 31.5 °F 79% 30.18 in 10.0 mi Calm Calm - N/A   Overcast
8:35 PM 38.1 °F - 32.0 °F 79% 30.18 in 10.0 mi Calm Calm - N/A   Mostly Cloudy
8:55 PM 36.5 °F - 31.1 °F 81% 30.18 in 10.0 mi Calm Calm - N/A   Overcast
9:15 PM 37.2 °F 34.7 °F 31.8 °F 81% 30.18 in 10.0 mi SSW 3.5 mph - N/A   Overcast
9:35 PM 37.9 °F 35.5 °F 32.0 °F 79% 30.18 in 10.0 mi South 3.5 mph - N/A   Overcast
9:55 PM 39.2 °F 37.0 °F 32.9 °F 78% 30.18 in 10.0 mi SW 3.5 mph - N/A   Overcast
10:15 PM 39.2 °F - 32.9 °F 78% 30.19 in 10.0 mi Calm Calm - N/A   Overcast
10:35 PM 38.7 °F 36.3 °F 32.9 °F 80% 30.18 in 10.0 mi SSW 3.5 mph - N/A   Overcast
10:55 PM 39.0 °F 36.8 °F 33.4 °F 80% 30.18 in 10.0 mi SSW 3.5 mph - N/A   Overcast
11:15 PM 39.2 °F 37.0 °F 33.1 °F 79% 30.18 in 10.0 mi South 3.5 mph - N/A   Overcast
11:35 PM 39.4 °F - 33.8 °F 80% 30.17 in 10.0 mi Calm Calm - N/A   Overcast
11:55 PM 39.7 °F - 33.8 °F 79% 30.17 in 10.0 mi Calm Calm - N/A   Overcast